Regional Weather Roundup
Issued by NWS Albany, NY

Home | Current Version | Previous Version | Graphics & Text | Print | Product List | Glossary On
Versions: 1 2 3 4 5 6 7 8 9 10 11 12 13 14 15 16 17 18 19 20 21 22 23 24 25 26 27 28 29 30 31 32 33 34 35 36 37 38 39 40 41 42 43 44 45 46 47 48 49 50
000
ASUS41 KALY 031810
RWRALY

NEW YORK STATE HOURLY WEATHER ROUNDUP
NATIONAL WEATHER SERVICE ALBANY NY
100 PM EST TUE MAR 03 2015

NOTE: "FAIR" INDICATES FEW OR NO CLOUDS BELOW 12,000 FEET WITH NO
SIGNIFICANT WEATHER AND/OR NO OBSTRUCTIONS TO VISIBILITY.

NYZ032-033-038>043-046>054-057>066-NYZ062>081-031900-
EAST


CITY           SKY/WX    TMP DP  RH WIND       PRES   REMARKS
ALBANY         CLOUDY    25   6  44 S9        30.29F WCI  15
GLENS FALLS    CLOUDY    23   8  52 S9        30.28F WCI  13
POUGHKEEPSIE   CLOUDY    29  10  45 SW7       30.31F WCI  22
NEWBURGH       CLOUDY    27  12  54 SE14      30.32F WCI  15
MONTGOMERY     CLOUDY    27  10  49 CALM      30.29F
WHITE PLAINS   CLOUDY    26   5  40 SE6       30.32F WCI  19
ISLIP          CLOUDY    28  12  51 S7        30.35F WCI  21
NEW YORK CITY  CLOUDY    29  14  53 S10       30.37F WCI  20
CENTRAL PARK   CLOUDY    30  12  47 VRB3      30.38F
$$

NYZ005>009-017-018-044>046-055-056-031900-
CENTRAL


CITY           SKY/WX    TMP DP  RH WIND       PRES   REMARKS
FULTON         CLOUDY    22  10  60 SE8G17    30.13F WCI  12
SYRACUSE       CLOUDY    20  11  67 S10       30.16F WCI   9
ROME           CLOUDY    23  10  57 E10       30.20F WCI  12
ELMIRA         LGT SNOW  23  17  78 S10       30.11F VSB 3/4 WCI  12
BINGHAMTON     CLOUDY    20   8  60 S12       30.10F WCI   8
MONTICELLO     CLOUDY    23   9  54 S14       30.21F WCI  11
$$

NYZ026>034-041>043-031900-
NORTH


CITY           SKY/WX    TMP DP  RH WIND       PRES   REMARKS
WATERTOWN      CLOUDY    27   9  46 S6        30.12F WCI  20
FORT DRUM      NOT AVBL
MASSENA        CLOUDY    27   2  34 CALM      30.17F
SARANAC LAKE   CLOUDY    21   6  52 S5        30.06F WCI  15
PLATTSBURGH    PTSUNNY   22   6  50 SE15      30.22F WCI   9
$$

NYZ001>004-010>016-019>021-031900-
WEST


CITY           SKY/WX    TMP DP  RH WIND       PRES   REMARKS
NIAGARA FALLS  SNOW      21  17  84 SE7       29.98F VSB 1/2 WCI  12
BUFFALO        SNOW      22  19  89 SE7       29.98F VSB 1/2 WCI  13
DUNKIRK        LGT SNOW  24  21  88 NW6       29.94F VSB 1   WCI  17
JAMESTOWN      CLOUDY    21  18  86 S10G17    29.92F WCI  10
WELLSVILLE     LGT SNOW  20  15  81 S10       29.97F WCI   9
ROCHESTER      LGT SNOW  23  17  78 S9        30.06F WCI  13
PENN YAN       LGT SNOW  23  12  62 S17       30.09F WCI   9
$$

             KEY
       WCI = WIND CHILL INDEX
       VSB = VISIBILITY
       HX  = HEAT INDEX
$$


USA.gov is the U.S. government's official web portal to all federal, state and local government web resources and services.